Location: Asheville, NC
(35.6000°N, 82.5500°W)
Time: 04:58:12
(UTC-04:00)

OTV 5 (USA 277) - Pass Details

Date: 13 October 2017
Orbit: 404 x 417 km, 43.0° (Epoch: 07 September)

Event Time Altitude Azimuth Distance (km) Brightness Sun altitude
Rises 20:22:40 0° 280° (W) 2,348 ? -18.2°
Reaches altitude 10° 20:25:02 10° 295° (WNW) 1,486 ? -18.7°
Maximum altitude 20:27:51 24° 352° (N) 897 ? -19.3°
Enters shadow 20:28:29 23° 10° (N) 934 ? -19.4°
